Location: Bartshausen
(51.8454°N, 9.8167°E)
Time: 11:01:24
(UTC+00:00)

Iridium 4 Rocket - Pass Details

Date: 19 February 2026
Orbit: 579 x 887 km, 86.9° (Epoch: 8 March)

Event Time Altitude Azimuth Distance (km) Brightness Sun altitude
Rises 20:45:38 0° 340° (NNW) 3,031 7.3 -36.8°
Reaches altitude 10° 20:49:36 10° 307° (NW) 2,035 6.4 -37.3°
Maximum altitude 20:50:52 11° 290° (WNW) 1,938 6.3 -37.5°
Drops below altitude 10° 20:52:08 10° 273° (W) 1,990 6.2 -37.7°
Enters shadow 20:52:33 - 268° (W) 2,039 6.2 -37.7°
